User: anonymous   Login
Location: McDonald Observatory
(30.6717°N, 104.0221°W)
Time: 10:26:33
(UTC-06:00)
Language:

Cosmos 1484 Rocket - Orbit

View from above orbital plane
View from above orbital plane
View from above satellite
View from above satellite

Ground track
Ground track

The orbit data is extracted from the following two-line orbital elements,

1 14208U 83075B   14324.66453895  .00004232  00000-0  27568-3 0  1778
2 14208 097.4073 355.9088 0043305 125.5147 235.0133 15.07670663705779
Epoch (UTC): 20 November 2014 15:56:56
Eccentricity: 0.0043305
inclination: 97.4073°
perigee height: 513 km
apogee height: 573 km
right ascension of ascending node: 355.9088°
argument of perigee: 125.5147°
revolutions per day: 15.07670663
mean anomaly at epoch: 235.0133°
orbit number at epoch: 70577

The dashed part of the orbit path shows where the satellite is in the earth's shadow,  

DLR